RH
20 23 57 63 66 35 41 54 90 96 72 54 54 55 42 32 4 4 2 2 2 2 2 2 4 9 10 10 11 10 9 7 6 8 4 2 1 1 1 2 2 3 3
28 22 18 24 32 52 36 50 78 96 95 60 57 63 45 44 22 3 2 2 2 2 3 3 5 9 10 11 11 10 10 9 6 6 7 2 1 1 1 2 3 3 4
58 44 37 29 25 31 61 46 58 85 95 94 63 69 72 52 43 5 3 2 2 2 2 4 11 9 11 10 11 11 10 10 8 6 8 2 1 1 1 2 3 3 4
46 51 51 46 45 36 46 74 73 81 89 93 89 62 72 80 60 40 3 2 2 2 2 4 14 11 11 10 11 11 10 10 9 6 8 2 1 1 1 2 2 3 4
23 26 35 47 61 71 52 58 81 88 92 94 97 84 68 78 84 69 20 4 2 2 2 3 5 10 11 10 12 11 10 10 10 8 6 6 1 1 2 2 2 3 4
9 12 18 24 30 72 79 60 63 64 90 90 90 96 79 69 81 76 49 17 3 2 2 5 4 8 11 11 12 13 11 10 10 9 6 8 1 1 2 2 2 4 4
4 4 6 11 18 19 33 82 49 52 75 90 82 95 95 72 63 62 57 41 5 3 2 2 3 4 9 12 12 13 14 12 10 10 8 7 2 1 2 2 2 4 4
3 4 4 4 4 8 13 20 41 64 47 78 96 95 91 92 65 56 58 60 27 4 3 2 2 2 5 10 12 12 14 15 10 10 9 6 6 1 2 2 2 4 4
3 3 3 3 4 4 4 6 13 24 77 59 64 94 97 94 88 59 51 58 54 20 4 3 2 2 3 6 10 11 12 14 15 10 10 8 7 1 2 2 2 3 4
2 2 2 2 2 3 3 3 4 5 13 53 87 98 93 96 96 93 52 49 62 55 15 4 3 2 2 3 6 9 10 13 15 11 10 9 6 3 2 2 2 3 3
3 2 3 2 2 2 2 2 2 3 3 5 12 65 94 96 96 96 94 54 54 63 45 19 5 3 2 2 3 6 8 10 13 14 10 10 7 6 1 2 2 2 3
5 5 4 4 3 3 3 2 2 2 2 2 3 5 12 58 86 96 97 96 60 62 58 47 24 4 3 2 2 3 5 8 10 15 11 10 9 6 2 2 2 2 2
7 6 5 5 5 4 4 4 3 2 2 2 2 2 2 2 14 58 91 96 96 71 66 58 49 36 3 4 2 2 3 6 8 12 14 10 10 8 5 2 2 2 2
11 10 9 8 7 6 5 5 5 5 4 4 3 3 4 3 2 4 25 84 96 95 72 67 63 63 62 6 3 2 2 3 5 9 15 11 10 9 6 2 2 2 2
18 17 16 15 13 11 9 8 6 6 6 6 6 5 5 5 5 4 3 32 61 96 93 78 80 83 79 65 4 3 2 2 3 6 12 15 10 10 8 5 2 2 2
24 23 22 20 19 17 15 14 12 10 9 8 8 6 5 6 6 6 6 5 24 63 90 98 97 87 94 85 56 3 3 2 2 3 6 14 12 10 9 6 2 2 2
30 30 27 25 22 20 18 17 15 14 13 13 12 12 10 8 6 7 7 7 6 20 55 78 97 94 89 94 88 19 3 3 2 2 3 10 15 9 10 8 4 2 2
36 30 26 22 20 18 17 17 16 15 12 9 7 5 4 7 10 10 8 9 8 6 19 50 82 96 96 95 98 56 3 3 3 2 3 5 12 12 9 9 7 2 2
29 25 22 21 20 18 17 16 14 12 6 4 3 3 3 3 3 3 6 8 8 8 7 22 51 95 98 96 78 87 9 3 3 3 2 3 6 14 9 9 8 5 2
28 26 25 22 20 17 12 7 4 4 4 4 4 3 3 3 3 4 2 2 4 7 9 7 19 79 96 97 96 97 60 8 3 3 2 2 4 9 12 9 9 7 3
30 30 27 20 12 8 6 5 4 4 4 4 3 3 2 2 2 2 3 3 2 2 4 8 7 27 90 98 96 96 99 51 4 3 3 3 2 5 13 9 9 9 7
34 29 19 12 10 9 9 8 6 5 4 4 4 4 3 3 2 2 2 2 2 2 2 3 8 7 47 88 95 96 96 79 18 3 3 2 2 3 10 11 9 9 7
28 19 13 12 12 12 10 7 6 5 5 6 5 4 3 3 2 2 2 2 2 2 2 2 3 7 12 31 94 96 96 92 35 4 3 3 2 2 5 13 9 9 9
21 17 16 15 14 13 10 8 8 7 6 4 3 3 3 2 2 2 2 2 2 2 2 2 2 4 15 14 70 96 96 92 55 7 3 3 2 2 4 12 10 8 9
22 20 17 17 16 13 11 10 6 5 4 3 3 2 2 2 1 1 1 1 1 1 1 1 2 2 5 8 28 96 96 97 70 25 4 4 3 3 3 8 13 8 9
24 20 20 18 17 13 8 6 6 4 3 3 2 2 1 1 1 1 1 1 1 1 1 1 2 2 6 12 17 82 96 96 84 50 7 3 3 4 3 5 13 10 8
Wind_Speed
22 24 24 19 16 21 20 19 20 18 17 17 17 16 16 15 15 15 15 12 10 8 10 13 15 13 10 8 5 4 7 9 9 9 9 8 9 11 13 14 17 19 20
24 24 22 22 22 21 23 23 22 20 18 18 19 19 19 17 17 16 15 15 13 11 10 13 16 15 11 9 6 4 5 7 9 8 10 8 9 10 11 13 16 18 20
29 26 25 24 23 21 22 24 24 22 20 19 20 20 19 19 19 18 17 17 16 14 12 13 16 15 13 11 8 5 3 5 8 9 9 9 9 9 10 12 15 17 19
29 31 30 28 25 24 24 24 24 24 24 21 22 23 22 20 20 19 19 19 18 17 15 13 15 17 15 13 10 7 4 2 5 8 7 8 9 9 10 12 13 16 18
31 30 31 32 30 31 29 28 26 26 27 27 24 27 25 25 22 21 20 21 21 20 19 16 16 18 17 16 12 9 6 3 3 7 7 8 8 8 9 11 13 15 17
33 33 33 32 33 36 37 32 30 29 29 30 32 27 28 27 26 24 22 22 23 23 22 19 17 18 18 17 14 10 8 5 1 4 6 5 6 7 8 9 11 13 16
36 36 35 35 34 34 36 39 34 33 33 33 32 33 31 30 30 29 27 25 25 25 25 24 21 19 20 19 17 13 10 7 4 0 3 4 5 5 6 7 10 12 14
35 36 37 37 36 37 37 37 38 39 35 36 34 35 37 35 34 32 30 28 28 27 27 27 25 23 21 21 19 17 14 11 8 4 1 3 3 4 5 6 8 11 13
34 34 35 37 38 38 38 38 38 38 42 38 40 40 30 36 38 35 34 33 30 31 30 31 30 28 25 24 22 20 18 15 11 8 3 1 1 2 3 4 7 9 11
34 34 35 36 37 38 38 39 40 40 40 42 46 39 42 33 34 39 39 36 34 34 33 33 34 33 31 28 24 23 20 18 15 11 7 4 2 2 2 4 5 7 10
35 36 36 36 36 37 39 40 40 42 41 40 44 49 47 41 39 40 41 42 40 39 38 36 36 37 36 32 27 25 23 21 19 15 12 7 4 4 4 4 4 5 8
38 38 38 38 38 38 38 40 42 41 43 42 41 43 43 51 50 38 45 44 45 43 41 40 38 40 38 36 32 28 26 25 22 19 16 12 7 6 7 6 6 5 7
42 42 42 42 42 42 42 41 41 44 45 44 43 41 39 41 43 53 50 45 48 48 46 43 41 39 40 38 37 33 30 27 25 23 20 16 11 8 8 8 8 7 6
46 46 46 46 47 47 48 48 47 45 45 47 47 46 43 42 42 44 50 58 43 51 51 48 45 43 40 42 41 39 34 30 29 26 25 20 16 12 9 10 10 9 8
49 49 50 50 50 51 51 51 52 52 52 52 52 53 51 49 46 47 47 53 57 46 54 52 49 43 45 42 44 43 41 36 32 29 28 25 21 17 13 13 13 12 10
51 51 52 53 53 53 54 55 56 56 57 56 56 58 59 57 56 54 52 51 54 60 54 52 50 47 47 46 42 47 46 42 37 32 31 29 25 21 17 14 15 15 13
52 52 53 54 55 55 55 56 56 57 59 60 61 61 62 64 63 63 60 58 57 57 60 55 56 54 46 48 44 48 48 45 42 37 34 33 30 25 21 16 17 17 16
52 52 52 53 54 54 55 57 59 60 61 61 62 62 63 63 66 68 69 66 65 62 60 65 59 57 62 51 54 46 49 49 46 43 39 35 33 30 25 21 18 20 19
51 52 53 54 56 57 59 62 63 65 64 66 66 67 69 70 69 69 70 71 71 71 66 64 69 60 74 52 56 54 49 53 49 47 45 39 37 34 30 25 21 21 21
52 52 54 56 56 59 61 62 63 66 68 69 71 73 74 74 76 77 75 76 77 74 75 71 68 73 64 60 63 50 53 56 54 51 49 44 39 37 33 30 25 21 23
52 53 52 53 54 56 59 61 66 69 71 74 74 77 77 78 79 81 81 81 82 81 79 77 73 74 70 74 61 59 68 63 61 55 51 49 42 39 37 33 29 24 23
49 50 51 52 53 54 56 61 67 72 76 78 81 82 85 86 87 88 87 85 85 85 85 82 81 77 77 81 74 57 57 68 63 58 53 51 46 42 40 37 33 28 25
49 50 50 52 54 58 62 67 72 76 79 83 87 89 91 93 96 96 96 97 94 92 90 89 84 84 84 79 82 63 58 68 64 60 56 53 50 44 42 40 37 32 28
49 49 51 53 56 61 65 69 74 79 83 86 89 91 94 97 100 102 103 103 101 100 95 96 92 88 91 84 84 77 63 69 64 59 58 55 53 48 44 43 40 37 32
48 50 51 53 58 62 66 71 74 75 80 85 91 94 98 101 105 109 114 114 110 112 108 107 98 94 90 88 85 74 69 69 65 64 63 60 55 51 47 45 44 40 35
49 50 51 54 58 62 66 66 70 75 79 84 91 95 97 98 99 101 104 107 109 110 110 109 109 97 93 89 81 78 73 61 70 67 62 61 59 56 51 48 46 44 39
Wind_Direction
239 233 234 240 232 230 232 230 238 235 223 220 222 217 205 201 201 202 199 202 199 183 160 161 163 170 173 156 143 101 55 43 42 45 31 20 22 16 20 17 21 21 20
245 242 238 238 240 239 235 237 237 238 229 218 224 228 220 206 202 208 203 204 209 196 180 169 167 171 177 172 163 132 73 45 39 35 30 29 27 23 24 19 22 24 22
247 246 244 240 240 239 239 242 244 247 242 229 222 225 229 226 210 205 206 211 208 208 198 178 174 175 179 184 177 166 117 51 39 39 28 28 27 29 28 24 22 28 26
244 243 244 240 238 241 236 236 238 245 245 240 237 228 226 228 232 214 210 210 213 214 209 196 184 181 180 187 191 187 170 93 43 38 34 30 29 35 31 30 26 30 31
246 245 243 242 243 240 241 236 239 239 242 239 248 228 229 228 223 233 219 214 213 213 216 206 196 191 187 186 196 201 195 162 51 39 35 28 33 37 37 33 31 33 35
244 245 243 240 244 246 243 242 240 243 241 244 244 243 227 230 228 221 230 226 220 215 214 218 209 201 197 193 196 208 209 200 160 42 30 41 42 38 44 40 39 38 38
242 245 246 244 244 243 247 247 249 244 244 237 240 246 236 225 231 229 222 226 228 223 220 217 215 212 205 202 200 207 217 214 204 171 25 26 46 51 49 48 50 47 41
241 242 244 246 245 244 244 243 247 247 243 246 239 237 240 234 225 230 232 231 227 227 224 221 220 217 214 209 207 208 215 218 211 208 345 25 34 51 59 58 64 59 48
241 240 240 242 245 246 246 246 246 246 250 244 246 240 236 238 228 225 230 231 231 229 225 223 222 219 218 215 209 211 214 223 220 214 212 321 108 68 81 73 74 69 57
248 249 246 244 245 247 248 247 247 248 248 253 244 245 245 238 232 225 227 230 231 234 232 224 224 221 220 219 213 212 213 220 222 217 220 214 179 159 122 109 87 79 68
246 249 253 253 251 249 250 252 250 249 250 247 252 257 244 246 238 227 226 228 229 232 233 229 228 222 223 220 218 214 212 217 220 216 218 221 217 185 171 150 123 94 82
246 246 247 249 251 251 249 250 252 253 252 253 250 252 256 267 264 246 229 226 227 229 233 233 229 228 224 223 218 215 217 215 218 216 219 220 222 208 185 178 159 128 98
251 250 250 249 250 252 253 250 247 250 253 254 254 253 253 254 256 268 255 241 231 227 228 232 233 234 228 224 222 219 218 215 215 215 220 219 219 221 203 192 178 160 126
251 251 253 254 253 251 250 253 254 250 250 253 256 256 254 253 255 254 258 264 241 229 227 227 230 230 232 227 224 221 220 220 217 213 218 220 217 222 215 200 195 177 155
253 253 253 253 254 254 254 254 254 255 255 252 253 256 258 257 254 254 255 258 266 241 227 228 229 227 231 234 224 222 221 218 222 215 216 218 219 219 219 203 198 195 176
255 255 255 255 256 256 256 256 255 255 253 254 254 254 256 256 258 256 256 256 256 262 255 230 230 223 230 231 228 224 223 220 220 220 217 217 219 219 220 213 200 201 192
255 256 256 256 255 255 255 255 255 256 256 256 255 254 252 253 254 256 256 257 256 255 260 259 228 229 226 233 233 226 224 222 221 223 220 216 218 220 219 222 208 203 200
255 255 255 256 256 256 256 257 256 256 256 256 256 256 255 252 252 254 254 255 256 255 254 259 257 225 221 226 230 227 226 224 222 220 223 218 216 219 219 218 218 206 205
254 255 255 257 258 258 258 258 258 257 256 257 258 259 260 261 258 252 251 252 253 253 252 251 254 243 229 229 222 226 228 229 220 219 221 219 216 215 219 219 220 214 206
255 256 258 261 262 261 261 260 258 258 258 260 262 261 260 259 259 258 254 251 250 249 251 249 250 256 229 232 226 236 226 231 225 220 219 221 216 215 216 218 219 219 213
256 259 262 266 267 267 266 264 264 264 263 265 264 262 260 258 256 256 254 253 251 247 246 246 247 250 250 223 226 223 232 230 229 219 218 220 217 215 214 217 217 218 218
260 264 266 268 269 270 271 271 268 266 266 267 266 266 265 262 258 257 254 250 249 247 244 242 243 244 250 250 225 225 230 226 227 222 218 218 218 215 216 215 217 217 220
263 265 268 270 272 273 273 272 271 271 272 271 270 268 265 262 260 258 253 250 247 245 243 241 239 240 243 247 229 220 229 219 222 222 218 217 218 216 216 215 216 218 218
264 267 268 271 274 276 276 276 277 276 276 274 272 268 266 264 261 258 256 252 246 241 240 242 238 236 239 241 245 231 223 219 217 220 218 217 216 216 217 215 216 217 218
266 269 272 276 278 280 282 282 282 280 279 277 275 274 273 271 267 263 259 253 248 241 237 238 234 233 235 237 242 243 222 218 214 217 214 214 215 217 217 215 216 217 216
268 271 276 280 284 285 288 288 288 287 286 285 284 281 276 271 264 257 251 247 241 236 234 229 233 227 232 235 233 237 220 213 217 217 217 215 214 214 215 214 215 218 215